Location: Cuneo
(44.3830°N, 7.5330°E)
Time: 08:52:53
(UTC+01:00)

ISS - Visible Passes

Search period start: 22 January 2019 00:00
Search period end: 01 February 2019 00:00
Orbit: 404 x 410 km, 51.6° (Epoch: 23 January)

Date Brightness Start Highest point End Pass type
(mag) Time Alt. Az. Time Alt. Az. Time Alt. Az.
22 Jan -2.4 19:27:57 10° SW 19:30:01 32° SSW 19:30:01 32° SSW visible
23 Jan -2.6 18:37:04 10° SSW 18:39:55 28° SE 18:41:04 22° ESE visible
23 Jan -0.6 20:13:07 10° W 20:13:48 15° W 20:13:48 15° W visible
24 Jan -3.7 19:21:38 10° WSW 19:24:46 72° WNW 19:24:46 72° WNW visible
25 Jan -3.7 18:30:19 10° SW 18:33:35 64° SE 18:35:40 20° ENE visible
25 Jan -0.9 20:07:20 10° W 20:08:23 17° WNW 20:08:23 17° WNW visible
26 Jan -3.0 19:15:39 10° W 19:18:47 40° NNW 19:19:13 38° N visible
27 Jan -3.5 18:24:04 10° WSW 18:27:19 60° NNW 18:29:59 15° NE visible
27 Jan -1.1 20:01:34 10° WNW 20:02:42 17° NW 20:02:42 17° NW visible
28 Jan -2.4 19:09:50 10° WNW 19:12:44 27° NNW 19:13:25 25° N visible
29 Jan -2.7 18:18:05 10° W 18:21:09 35° NNW 18:24:07 11° NE visible
29 Jan -1.2 19:55:39 10° NW 19:56:49 17° NW 19:56:49 17° NW visible
30 Jan -2.1 19:03:58 10° WNW 19:06:41 23° N 19:07:29 21° NNE visible
31 Jan -2.2 18:12:13 10° WNW 18:15:02 25° N 18:17:52 10° NE visible
31 Jan -1.5 19:49:28 10° NW 19:50:52 19° NNW 19:50:52 19° NNW visible
